This demonstration page uses our WeatherBlox Daily Observations layout. Learn more.

Left ArrowRight Arrow

39.08367, -84.50855

Hourly Observations for August 15, 2017

Temp ( °F °C ) Dew Point ( °F °C ) Humidity (%) Winds ( mph kmh ) Pressure ( in mb ) Visibility ( mi km ) Precip ( " mm )
12:53 am 00:53 Clear 69 20.6 69 20.6 100 100 N N/A 29.87 1012 10 16.0934 N/A
1:53 am 01:53 Mostly Cloudy 68 20 68 20 100 100 NE 3 6 29.87 1012 10 16.0934 N/A
2:53 am 02:53 Mostly Cloudy with Light Rain 69 20.6 69 20.6 100 100 NE 3 6 29.86 1011 9 14.48406 N/A
3:37 am 03:37 Mostly Clear with Mist and Fog 68 20 68 20 100 100 N N/A 29.88 1012 1.75 2.816345 N/A
3:47 am 03:47 Mostly Cloudy with Light Rain 68 20 68 20 100 100 N N/A 29.88 1012 3 4.82802 N/A
3:53 am 03:53 Mostly Cloudy with Light Rain 68 20 68 20 100 100 N N/A 29.86 1011 1.75 2.816345 N/A
4:02 am 04:02 Mostly Cloudy with Mist and Fog 68 20 68 20 100 100 N N/A 29.88 1012 3 4.82802 N/A
4:53 am 04:53 Cloudy 69 20.6 69 20.6 100 100 N N/A 29.87 1011 9 14.48406 N/A
5:53 am 05:53 Cloudy 69 20.6 69 20.6 100 100 N N/A 29.87 1012 9 14.48406 N/A
6:33 am 06:33 Clear with Mist and Fog 67 19.4 67 19.4 100 100 N N/A 29.88 1012 1.25 2.011675 N/A
6:40 am 06:40 Mostly Cloudy with Fog 66 18.9 66 18.9 100 100 N N/A 29.91 1013 0.5 0.80467 N/A
6:48 am 06:48 Mostly Clear with Mist and Fog 66 19 66 19 100 100 N N/A 29.91 1013 0.75 1.207005 N/A
6:53 am 06:53 Partly Cloudy with Patchy Fog 66 18.9 66 18.9 100 100 N N/A 29.89 1012 5 8.0467 N/A
7:53 am 07:53 Sunny with Patchy Fog 68 20 68 20 100 100 N N/A 29.91 1013 8 12.87472 N/A
8:53 am 08:53 Sunny 73 22.8 71 21.7 94 94 N N/A 29.91 1013 8 12.87472 N/A
9:53 am 09:53 Sunny 77 25 71 21.7 82 82 SSE 3 6 29.91 1013 10 16.0934 N/A
10:53 am 10:53 Sunny 82 27.8 71 21.7 69 69 VRB 3 6 29.92 1013 10 16.0934 N/A
11:53 am 11:53 Partly Cloudy 83 28.3 70 21.1 65 65 WSW 8 13 29.92 1013 10 16.0934 N/A
12:53 pm 12:53 Mostly Cloudy 85 29.4 69 20.6 59 59 W 8 13 29.93 1014 10 16.0934 N/A
1:53 pm 13:53 Mostly Sunny 87 30.6 68 20 53 53 W 10 17 29.93 1013 10 16.0934 N/A
2:53 pm 14:53 Partly Cloudy 86 30 67 19.4 53 53 SSW 5 7 29.91 1013 10 16.0934 N/A
3:53 pm 15:53 Mostly Cloudy 85 29.4 69 20.6 59 59 S 6 9 29.9 1013 10 16.0934 N/A
4:53 pm 16:53 Mostly Cloudy 89 31.7 68 20 50 50 WNW 8 13 29.9 1012 10 16.0934 N/A
5:53 pm 17:53 Mostly Cloudy 86 30 67 19.4 53 53 W 7 11 29.89 1012 10 16.0934 N/A
6:53 pm 18:53 Mostly Sunny 86 30 66 18.9 51 51 NW 6 9 29.89 1012 10 16.0934 N/A
7:53 pm 19:53 Mostly Sunny 84 28.9 68 20 59 59 NW 3 6 29.89 1012 10 16.0934 N/A
8:53 pm 20:53 Clear 76 24.4 72 22.2 88 88 N N/A 29.91 1013 10 16.0934 N/A
9:53 pm 21:53 Clear 73 22.8 71 21.7 94 94 N N/A 29.93 1014 10 16.0934 N/A
10:53 pm 22:53 Clear 71 21.7 70 21.1 96 96 N N/A 29.95 1014 10 16.0934 N/A
11:53 pm 23:53 Clear 70 21.1 69 20.6 97 97 N N/A 29.96 1015 10 16.0934 N/A

Powered by AerisWeather